User: anonymous   Login
Location: Unspecified
(0.0000°N, 0.0000°E)
Time: 11:43:21
(UTC+00:00)
Language:

Tiangong 2 - Orbit

View from above orbital plane
View from above orbital plane
View from above satellite
View from above satellite

Ground track
Ground track

The orbit data is extracted from the following two-line orbital elements,

1 41765U 16057A   18349.04170375  .00003863  00000-0  50630-4 0  9992
2 41765  42.7854 344.5148 0006198  65.8658  34.5580 15.60217626128266
Epoch (UTC): 15 December 2018 01:00:03
Eccentricity: 0.0006198
inclination: 42.7854°
perigee height: 383 km
apogee height: 391 km
right ascension of ascending node: 344.5148°
argument of perigee: 65.8658°
revolutions per day: 15.60217626
mean anomaly at epoch: 34.5580°
orbit number at epoch: 12826

The dashed part of the orbit path shows where the satellite is in the earth's shadow,  

DLR